Location: La Oliva
(42.2466°N, 2.9955°E)
Time: 11:22:04
(UTC+00:00)

Cosmos 2221 - Pass Details

Date: 22 April 2021
Orbit: 593 x 615 km, 82.5° (Epoch: 10 May)

Event Time Altitude Azimuth Distance (km) Brightness Sun altitude
Exits shadow 21:41:54 40° 359° (N) 881 3.6 -28.2°
Drops below altitude 10° 21:44:43 10° 6° (N) 1,941 5.7 -28.5°
Sets 21:46:56 0° 7° (N) 2,850 6.6 -28.8°
